Retour au catalogue

CZ-3C DEB

ActifGTO
NORAD 39342·DEBRIS·🇨🇳 China

Lancé Oct 31, 2010 depuis Xichang Satellite Launch Center

Loading…

TLE

VieillissantSource: Space-Track

Époque: Sep 14, 2026, 11:56 UTC

1 39342U 10057G   26257.49788089 -.00000046  00000-0  10359-2 0  9990
2 39342  20.4152  69.5625 7193472 215.5289  43.0157  2.20688506104186

Suivez CZ-3C DEB en temps réel avec AllMySat

Download on the App Store